This demonstration page uses our WeatherBlox Daily Observations layout. Learn more.

Left ArrowRight Arrow

36.17497, -115.13722

Hourly Observations for March 19, 2021

Temp ( °F °C ) Dew Point ( °F °C ) Humidity (%) Winds ( mph kmh ) Pressure ( in mb ) Visibility ( mi km ) Precip ( " mm )
12:53 am 00:53 Mostly Cloudy 57 13.9 27 -2.8 32 32 NW 3 6 30.06 1018 10 16 0.00 0.00
1:53 am 01:53 Clear 56 13.3 28 -2.2 34 34 W 3 6 30.06 1018 10 16 0.00 0.00
2:53 am 02:53 Clear 55 12.8 27 -2.8 34 34 W 5 7 30.05 1018 10 16 0.00 0.00
3:53 am 03:53 Clear 53 11.7 28 -2.2 38 38 W 5 7 30.05 1018 10 16 0.00 0.00
4:53 am 04:53 Clear 50 10 26 -3.3 39 39 NW 6 9 30.05 1018 10 16 0.00 0.00
5:53 am 05:53 Clear 52 11.1 27 -2.8 38 38 Calm 30.06 1018 10 16 0.00 0.00
6:53 am 06:53 Sunny 52 11.1 26 -3.3 37 37 E 5 7 30.08 1019 10 16 0.00 0.00
7:53 am 07:53 Sunny 55 12.8 27 -2.8 34 34 Calm 30.09 1019 10 16 0.00 0.00
8:53 am 08:53 Sunny 59 15 27 -2.8 29 29 SE 6 9 30.09 1019 10 16 0.00 0.00
9:53 am 09:53 Sunny 63 17.2 25 -3.9 24 24 ESE 7 11 30.09 1019 10 16 0.00 0.00
10:53 am 10:53 Sunny 66 18.9 24 -4.4 20 20 SE 5 7 30.07 1018 10 16 0.00 0.00
11:53 am 11:53 Sunny 71 21.7 23 -5 16 16 ESE 7 11 30.04 1017 10 16 0.00 0.00
12:53 pm 12:53 Sunny 74 23.3 25 -3.9 16 16 SE 10 17 30.01 1016 10 16 0.00 0.00
1:53 pm 13:53 Sunny 77 25 30 -1.1 18 18 VRB 5 7 29.97 1015 10 16 0.00 0.00
2:53 pm 14:53 Sunny 81 27.2 35 1.7 19 19 SSW 18 30 29.93 1014 10 16 0.00 0.00
3:53 pm 15:53 Sunny 80 26.7 33 0.6 18 18 SSW 17 28 29.92 1013 10 16 0.00 0.00
4:53 pm 16:53 Sunny 80 26.7 32 0 17 17 S 15 24 29.92 1013 10 16 0.00 0.00
5:53 pm 17:53 Sunny 78 25.6 32 0 19 19 SSW 17 28 29.91 1013 10 16 0.00 0.00
6:53 pm 18:53 Clear 76 24.4 33 0.6 21 21 S 13 20 29.91 1013 10 16 0.00 0.00
7:53 pm 19:53 Clear 74 23.3 33 0.6 22 22 S 10 17 29.90 1013 10 16 0.00 0.00
8:53 pm 20:53 Clear 72 22.2 34 1.1 25 25 SSE 10 17 29.91 1013 10 16 0.00 0.00
9:53 pm 21:53 Clear 71 21.7 35 1.7 27 27 SSE 10 17 29.91 1013 10 16 0.00 0.00
10:53 pm 22:53 Clear 71 21.7 37 2.8 29 29 SW 5 7 29.91 1013 10 16 0.00 0.00

Powered by AerisWeather